Location: Monroe
(41.9160°N, 83.3980°W)
Time: 17:10:12
(UTC-05:00)

ISS - Visible Passes

Search period start: 19 February 2018 00:00
Search period end: 01 March 2018 00:00
Orbit: 403 x 407 km, 51.6° (Epoch: 20 February)

Date Brightness Start Highest point End Pass type
(mag) Time Alt. Az. Time Alt. Az. Time Alt. Az.
24 Feb -0.9 06:42:09 10° S 06:44:25 18° SE 06:46:41 10° E visible
26 Feb -2.5 06:33:02 10° SSW 06:36:08 41° SE 06:39:14 10° ENE visible
27 Feb -1.5 05:41:24 10° S 05:43:59 22° SE 05:46:35 10° E visible
28 Feb -0.8 04:51:46 12° SE 04:51:54 12° SE 04:53:08 10° ESE visible
28 Feb -3.9 06:24:39 10° WSW 06:27:56 82° NNW 06:31:13 10° NE visible
